Wolverhampton, United Kingdom
Current Conditions -  °F | °C
As of 4:50 AM on Saturday 29 Nov 2014 (Local Time) from EGBB Reporting Station
Haze Haze  
Wind Chill: 45°   Ceiling: 600
Heat Index: 48°   Visibility: 2.3mi
Dew Point: 48°   Wind: 7mph
Humidity: 100%   Direction: 70°ENE
Pressure: 29.77"   Gusts: NA
Location:  52.59°N, 2.13°W
Report Text: EGBB 290450Z 07006KT 3800 BR BKN006 BKN008 09/09 Q1008
Loading
Personal Weather Stations






























Interactive Weather Map New forecast layout! Learn more

10-Day Weather Forecast

Advertisements
Track Severe Weather on mobile